Location: Newark
(45.9167°N, 5.5000°E)
Time: 16:51:18
(UTC+00:00)

N. Korean satellite - Pass Details

Date: 01 February 2020
Orbit: 456 x 506 km, 97.2° (Epoch: 17 February)

Event Time Altitude Azimuth Distance (km) Brightness Sun altitude
Rises 04:17:46 0° 34° (NNE) 2,567 10.7 -28.5°
Reaches altitude 10° 04:21:02 10° 66° (ENE) 1,691 10.2 -27.9°
Maximum altitude 04:22:29 12° 90° (E) 1,573 10.1 -27.7°
Drops below altitude 10° 04:23:56 10° 113° (ESE) 1,695 10.1 -27.4°
Sets 04:27:12 0° 146° (SE) 2,581 10.7 -26.9°
